This demonstration page uses our WeatherBlox Daily Observations layout. Learn more.

Left ArrowRight Arrow

38.89511, -77.03637

Hourly Observations for November 6, 2015

Temp ( °F °C ) Dew Point ( °F °C ) Humidity (%) Winds ( mph kmh ) Pressure ( in mb ) Visibility ( mi km ) Precip ( " mm )
12:34 am 00:34 Mostly Clear with Mist and Fog 63 17 63 17 100 100 S 5 7 30.12 1020 2 2 0.00 0.00
12:37 am 00:37 Partly Cloudy with Mist and Fog 62 16.7 62 16.7 100 100 S 6 9 30.12 1020 3 4 0.00 0.00
12:44 am 00:44 Mostly Cloudy with Mist and Fog 63 17 63 17 100 100 S 7 11 30.12 1020 2 2 0.00 0.00
12:52 am 00:52 Mostly Cloudy with Mist and Fog 61 16.1 61 16.1 100 100 S 7 11 30.10 1019 2 2 0.00 0.00
1:04 am 01:04 Mostly Cloudy with Mist and Fog 61 16 61 16 100 100 S 7 11 30.09 1019 4 6 0.00 0.00
1:31 am 01:31 Mostly Clear with Mist and Fog 63 17.2 62 16.7 97 97 SSW 3 6 30.09 1019 4 6 0.00 0.00
1:46 am 01:46 Mostly Cloudy with Mist and Fog 61 16 61 16 100 100 WSW 3 6 30.09 1019 4 6 0.00 0.00
1:52 am 01:52 Mostly Cloudy with Mist and Fog 62 16.7 61 16.1 96 96 SSW 3 6 30.10 1019 5 8 0.00 0.00
2:52 am 02:52 Cloudy with Mist and Fog 61 16.1 61 16.1 100 100 S 5 7 30.08 1019 4 6 0.00 0.00
3:36 am 03:36 Cloudy 63 17 63 17 100 100 SSW 8 13 30.09 1019 7 11 0.00 0.00
3:52 am 03:52 Cloudy with Mist and Fog 63 17.2 63 17.2 100 100 SSW 8 13 30.08 1019 5 8 0.00 0.00
4:34 am 04:34 Cloudy with Mist and Fog 63 17 63 17 100 100 S 8 13 30.09 1019 3 4 0.00 0.00
4:41 am 04:41 Cloudy with Mist and Fog 62 16.7 62 16.7 100 100 S 9 15 30.09 1019 3 5 0.00 0.00
4:52 am 04:52 Cloudy with Mist and Fog 62 16.7 62 16.7 100 100 S 10 17 30.07 1018 3 5 0.00 0.00
5:52 am 05:52 Cloudy with Mist and Fog 62 16.7 62 16.7 100 100 S 12 19 30.06 1018 5 8 0.00 0.00
6:18 am 06:18 Cloudy 63 17 63 17 100 100 SSW 13 20 30.06 1018 8 13 0.00 0.00
6:52 am 06:52 Cloudy with Mist and Fog 63 17.2 62 16.7 97 97 S 9 15 30.06 1018 6 10 0.00 0.00
7:52 am 07:52 Cloudy 65 18.3 63 17.2 93 93 S 14 22 30.06 1018 8 13 0.00 0.00
8:52 am 08:52 Cloudy 66 18.9 64 17.8 93 93 S 12 19 30.06 1018 9 14 0.00 0.00
8:54 am 08:54 Cloudy 66 19 64 18 94 94 SSW 8 13 30.06 1018 9 14 0.00 0.00
9:29 am 09:29 Cloudy 67 19.4 64 17.8 91 91 SSW 10 17 30.06 1018 10 16 0.00 0.00
9:52 am 09:52 Cloudy 69 20.6 65 18.3 87 87 SSW 9 15 30.04 1017 10 16 0.00 0.00
10:29 am 10:29 Mostly Cloudy 72 22.2 66 18.9 82 82 SSW 12 19 30.03 1017 10 16 0.00 0.00
10:52 am 10:52 Partly Cloudy 74 23.3 66 18.9 76 76 SSW 15 24 30.02 1017 10 16 0.00 0.00
11:52 am 11:52 Partly Cloudy 76 24.4 65 18.3 69 69 S 14 22 29.98 1015 10 16 0.00 0.00
12:52 pm 12:52 Partly Cloudy 77 25 65 18.3 66 66 SSW 16 26 29.94 1014 10 16 0.00 0.00
1:52 pm 13:52 Mostly Cloudy 79 26.1 65 18.3 62 62 SSW 16 26 29.91 1013 10 16 0.00 0.00
2:52 pm 14:52 Partly Cloudy 80 26.7 65 18.3 60 60 SSW 20 31 29.92 1013 10 16 0.00 0.00
3:52 pm 15:52 Mostly Cloudy 79 26.1 65 18.3 62 62 SSW 15 24 29.92 1013 10 16 0.00 0.00
4:37 pm 16:37 Mostly Cloudy 75 23.9 64 17.8 69 69 SSW 7 11 29.94 1014 10 16 0.00 0.00
4:52 pm 16:52 Mostly Cloudy 75 23.9 64 17.8 69 69 S 9 15 29.92 1013 10 16 0.00 0.00
5:52 pm 17:52 Mostly Cloudy 76 24.4 64 17.8 67 67 SSW 13 20 29.95 1014 10 16 0.00 0.00
6:52 pm 18:52 Mostly Cloudy 73 22.8 64 17.8 74 74 SSW 8 13 29.96 1015 10 16 0.00 0.00
7:52 pm 19:52 Cloudy 76 24.4 65 18.3 69 69 VRB 6 9 29.98 1015 10 16 0.00 0.00
8:40 pm 20:40 Cloudy with Light Rain 72 22 64 18 78 78 NNW 10 17 30.03 1017 10 16 0.00 0.00
8:52 pm 20:52 Cloudy 72 22.2 64 17.8 76 76 WNW 7 11 30.01 1016 10 16 0.00 0.03
9:52 pm 21:52 Cloudy 71 21.7 60 15.6 68 68 SW 5 7 30.02 1017 10 16 0.00 0.00
10:06 pm 22:06 Cloudy 72 22 59 15 65 65 W 5 7 30.03 1017 10 16 0.00 0.00
10:52 pm 22:52 Cloudy 72 22.2 58 14.4 61 61 SW 5 7 30.02 1017 10 16 0.00 0.00
11:52 pm 23:52 Mostly Cloudy 70 21.1 57 13.9 64 64 Calm 30.02 1017 10 16 0.00 0.00

Powered by AerisWeather